Time,TemperatureF,DewpointF,PressureIn,WindDirection,WindDirectionDegrees,WindSpeedMPH,WindSpeedGustMPH,Humidity,HourlyPrecipIn,Conditions,Clouds,dailyrainin,SoftwareType,DateUTC
2013-07-26 00:00:00,62.2,62.2,30.10,South,172,0.0,0.0,100,-0.16,,,0.00,Weather View 32 v70,2013-07-26 04:00:00,
2013-07-26 00:01:00,62.3,62.3,30.10,South,172,0.0,0.0,100,-0.16,,,0.00,Weather View 32 v70,2013-07-26 04:01:00,
2013-07-26 00:06:00,62.3,62.3,30.10,South,181,0.0,0.0,100,-0.16,,,0.00,Weather View 32 v70,2013-07-26 04:06:00,
2013-07-26 00:12:00,62.2,62.2,30.11,South,181,0.0,0.0,100,-0.16,,,0.00,Weather View 32 v70,2013-07-26 04:12:00,
2013-07-26 00:17:00,62.1,62.1,30.11,South,181,0.0,0.0,100,-0.16,,,0.00,Weather View 32 v70,2013-07-26 04:17:00,
2013-07-26 00:22:00,62.0,62.0,30.11,South,181,0.0,0.0,100,-0.16,,,0.00,Weather View 32 v70,2013-07-26 04:22:00,
2013-07-26 00:27:00,61.9,61.9,30.11,South,180,0.0,0.0,100,-0.16,,,0.00,Weather View 32 v70,2013-07-26 04:27:00,
2013-07-26 00:32:00,61.8,61.8,30.11,South,180,0.0,0.0,100,-0.16,,,0.00,Weather View 32 v70,2013-07-26 04:32:00,
2013-07-26 00:37:00,61.8,61.8,30.11,South,180,0.0,0.0,100,-0.16,,,0.00,Weather View 32 v70,2013-07-26 04:37:00,
2013-07-26 00:42:00,61.8,61.8,30.11,South,180,0.0,0.0,100,-0.16,,,0.00,Weather View 32 v70,2013-07-26 04:42:00,
2013-07-26 00:47:00,61.8,61.8,30.11,South,179,0.0,0.0,100,-0.16,,,0.00,Weather View 32 v70,2013-07-26 04:47:00,
2013-07-26 00:52:00,61.7,61.7,30.11,South,179,0.0,0.0,100,-0.16,,,0.00,Weather View 32 v70,2013-07-26 04:52:00,
2013-07-26 00:57:00,61.6,61.6,30.11,South,179,0.0,0.0,100,-0.16,,,0.00,Weather View 32 v70,2013-07-26 04:57:00,
2013-07-26 01:02:00,61.5,61.5,30.11,South,179,0.0,0.0,100,0.00,,,0.00,Weather View 32 v70,2013-07-26 05:02:00,
2013-07-26 01:07:00,61.4,61.4,30.11,South,179,0.0,0.0,100,0.00,,,0.00,Weather View 32 v70,2013-07-26 05:07:00,
2013-07-26 01:12:00,61.3,61.3,30.11,South,179,0.0,0.0,100,0.00,,,0.00,Weather View 32 v70,2013-07-26 05:12:00,
2013-07-26 01:17:00,61.2,61.2,30.11,South,179,0.0,0.0,100,0.00,,,0.00,Weather View 32 v70,2013-07-26 05:17:00,
2013-07-26 01:22:00,61.1,61.1,30.11,South,179,0.0,0.0,100,0.00,,,0.00,Weather View 32 v70,2013-07-26 05:22:00,
2013-07-26 01:27:00,61.0,61.0,30.11,South,179,0.0,0.0,100,0.00,,,0.00,Weather View 32 v70,2013-07-26 05:27:00,
2013-07-26 01:32:00,61.1,61.1,30.11,South,180,0.0,0.0,100,0.00,,,0.00,Weather View 32 v70,2013-07-26 05:32:00,
2013-07-26 01:37:00,61.1,61.1,30.11,South,180,0.0,0.0,100,0.00,,,0.00,Weather View 32 v70,2013-07-26 05:37:00,
2013-07-26 01:42:00,61.1,61.1,30.10,South,180,0.0,0.0,100,0.00,,,0.00,Weather View 32 v70,2013-07-26 05:42:00,
2013-07-26 01:47:00,61.0,61.0,30.10,South,180,0.0,0.0,100,0.00,,,0.00,Weather View 32 v70,2013-07-26 05:47:00,
2013-07-26 01:52:00,61.0,61.0,30.10,South,180,0.0,0.0,100,0.00,,,0.00,Weather View 32 v70,2013-07-26 05:52:00,
2013-07-26 01:57:00,60.9,60.9,30.10,South,180,0.0,0.0,100,0.00,,,0.00,Weather View 32 v70,2013-07-26 05:57:00,
2013-07-26 02:02:00,60.7,60.7,30.11,South,180,0.0,0.0,100,0.00,,,0.00,Weather View 32 v70,2013-07-26 06:02:00,
2013-07-26 02:07:00,60.6,60.6,30.11,South,179,0.0,0.0,100,0.00,,,0.00,Weather View 32 v70,2013-07-26 06:07:00,
2013-07-26 02:12:00,60.5,60.5,30.11,South,180,0.0,0.0,100,0.00,,,0.00,Weather View 32 v70,2013-07-26 06:12:00,
2013-07-26 02:17:00,60.5,60.5,30.10,South,180,0.0,0.0,100,0.00,,,0.00,Weather View 32 v70,2013-07-26 06:17:00,
2013-07-26 02:22:00,60.5,60.5,30.10,South,181,0.0,0.0,100,0.00,,,0.00,Weather View 32 v70,2013-07-26 06:22:00,
2013-07-26 02:27:00,60.5,60.5,30.10,South,181,0.0,0.0,100,0.00,,,0.00,Weather View 32 v70,2013-07-26 06:27:00,
2013-07-26 02:32:00,60.4,60.4,30.10,South,181,0.0,0.0,100,0.00,,,0.00,Weather View 32 v70,2013-07-26 06:32:00,
2013-07-26 02:37:00,60.3,60.3,30.10,South,181,0.0,0.0,100,0.00,,,0.00,Weather View 32 v70,2013-07-26 06:37:00,
2013-07-26 02:42:00,60.2,60.2,30.10,South,181,0.0,0.0,100,0.00,,,0.00,Weather View 32 v70,2013-07-26 06:42:00,
2013-07-26 02:47:00,60.2,60.2,30.10,South,181,0.0,0.0,100,0.00,,,0.00,Weather View 32 v70,2013-07-26 06:47:00,
2013-07-26 02:52:00,60.1,60.1,30.10,South,181,0.0,0.0,100,0.00,,,0.00,Weather View 32 v70,2013-07-26 06:52:00,
2013-07-26 02:57:00,60.1,60.1,30.10,South,181,0.0,0.0,100,0.00,,,0.00,Weather View 32 v70,2013-07-26 06:57:00,
2013-07-26 03:02:00,60.0,60.0,30.10,South,181,0.0,0.0,100,0.00,,,0.00,Weather View 32 v70,2013-07-26 07:02:00,
2013-07-26 03:07:00,59.9,59.9,30.10,South,181,0.0,0.0,100,0.00,,,0.00,Weather View 32 v70,2013-07-26 07:07:00,
2013-07-26 03:12:00,59.8,59.8,30.10,South,182,0.0,0.0,100,0.00,,,0.00,Weather View 32 v70,2013-07-26 07:12:00,
2013-07-26 03:17:00,59.8,59.8,30.10,South,182,0.0,0.0,100,0.00,,,0.00,Weather View 32 v70,2013-07-26 07:17:00,
2013-07-26 03:22:00,59.9,59.9,30.10,South,182,0.0,0.0,100,0.00,,,0.00,Weather View 32 v70,2013-07-26 07:22:00,
2013-07-26 03:27:00,59.8,59.8,30.10,South,181,0.0,0.0,100,0.00,,,0.00,Weather View 32 v70,2013-07-26 07:27:00,
2013-07-26 03:32:00,59.8,59.8,30.10,South,180,0.0,0.0,100,0.00,,,0.00,Weather View 32 v70,2013-07-26 07:32:00,
2013-07-26 03:37:00,59.8,59.8,30.10,South,180,0.0,0.0,100,0.00,,,0.00,Weather View 32 v70,2013-07-26 07:37:00,
2013-07-26 03:42:00,59.7,59.7,30.10,South,180,0.0,0.0,100,0.00,,,0.00,Weather View 32 v70,2013-07-26 07:42:00,
2013-07-26 03:47:00,59.6,59.6,30.10,South,180,0.0,0.0,100,0.00,,,0.00,Weather View 32 v70,2013-07-26 07:47:00,
2013-07-26 03:52:00,59.6,59.6,30.10,South,180,0.0,0.0,100,0.00,,,0.00,Weather View 32 v70,2013-07-26 07:52:00,
2013-07-26 03:57:00,59.5,59.5,30.10,South,180,0.0,0.0,100,0.00,,,0.00,Weather View 32 v70,2013-07-26 07:57:00,
2013-07-26 04:03:00,59.5,59.5,30.10,South,180,0.0,0.0,100,0.00,,,0.00,Weather View 32 v70,2013-07-26 08:03:00,
2013-07-26 04:08:00,59.4,59.4,30.10,South,180,0.0,0.0,100,0.00,,,0.00,Weather View 32 v70,2013-07-26 08:08:00,
2013-07-26 04:13:00,59.3,59.3,30.10,South,180,0.0,0.0,100,0.00,,,0.00,Weather View 32 v70,2013-07-26 08:13:00,
2013-07-26 04:18:00,59.3,59.3,30.10,South,180,0.0,0.0,100,0.00,,,0.00,Weather View 32 v70,2013-07-26 08:18:00,
2013-07-26 04:23:00,59.3,59.3,30.10,South,180,0.0,0.0,100,0.00,,,0.00,Weather View 32 v70,2013-07-26 08:23:00,
2013-07-26 04:28:00,59.3,59.3,30.10,South,180,0.0,0.0,100,0.00,,,0.00,Weather View 32 v70,2013-07-26 08:28:00,
2013-07-26 04:33:00,59.2,59.2,30.10,South,180,0.0,0.0,100,0.00,,,0.00,Weather View 32 v70,2013-07-26 08:33:00,
2013-07-26 04:38:00,59.2,59.2,30.11,South,180,0.0,0.0,100,0.00,,,0.00,Weather View 32 v70,2013-07-26 08:38:00,
2013-07-26 04:43:00,59.1,59.1,30.11,South,180,0.0,0.0,100,0.00,,,0.00,Weather View 32 v70,2013-07-26 08:43:00,
2013-07-26 04:48:00,59.1,59.1,30.11,South,179,0.0,0.0,100,0.00,,,0.00,Weather View 32 v70,2013-07-26 08:48:00,
2013-07-26 04:53:00,59.1,59.1,30.10,South,179,0.0,0.0,100,0.00,,,0.00,Weather View 32 v70,2013-07-26 08:53:00,
2013-07-26 04:58:00,59.0,59.0,30.11,South,179,0.0,0.0,100,0.00,,,0.00,Weather View 32 v70,2013-07-26 08:58:00,
2013-07-26 05:03:00,59.1,59.1,30.11,South,173,0.0,0.0,100,0.00,,,0.00,Weather View 32 v70,2013-07-26 09:03:00,
2013-07-26 05:08:00,59.1,59.1,30.11,South,173,0.0,0.0,100,0.00,,,0.00,Weather View 32 v70,2013-07-26 09:08:00,
2013-07-26 05:13:00,59.1,59.1,30.11,South,173,0.0,0.0,100,0.00,,,0.00,Weather View 32 v70,2013-07-26 09:13:00,
2013-07-26 05:18:00,59.1,59.1,30.11,South,173,0.0,0.0,100,0.00,,,0.00,Weather View 32 v70,2013-07-26 09:18:00,
2013-07-26 05:23:00,58.9,58.9,30.11,South,173,0.0,0.0,100,0.00,,,0.00,Weather View 32 v70,2013-07-26 09:23:00,
2013-07-26 05:28:00,58.9,58.9,30.11,South,173,0.0,0.0,100,0.00,,,0.00,Weather View 32 v70,2013-07-26 09:28:00,
2013-07-26 05:33:00,58.9,58.9,30.12,South,173,0.0,0.0,100,0.00,,,0.00,Weather View 32 v70,2013-07-26 09:33:00,
2013-07-26 05:38:00,58.9,58.9,30.11,ENE,73,0.0,0.0,100,0.00,,,0.00,Weather View 32 v70,2013-07-26 09:38:00,
2013-07-26 05:43:00,58.9,58.9,30.11,ENE,73,0.0,0.0,100,0.00,,,0.00,Weather View 32 v70,2013-07-26 09:43:00,
2013-07-26 05:48:00,58.7,58.7,30.11,ENE,69,0.0,0.0,100,0.00,,,0.00,Weather View 32 v70,2013-07-26 09:48:00,
2013-07-26 05:53:00,58.7,58.7,30.11,ENE,69,0.0,0.0,100,0.00,,,0.00,Weather View 32 v70,2013-07-26 09:53:00,
2013-07-26 05:58:00,58.6,58.6,30.11,ENE,69,0.0,0.0,100,0.00,,,0.00,Weather View 32 v70,2013-07-26 09:58:00,
2013-07-26 06:03:00,58.6,58.6,30.12,ENE,69,0.0,0.0,100,0.00,,,0.00,Weather View 32 v70,2013-07-26 10:03:00,
2013-07-26 06:08:00,58.6,58.6,30.12,South,190,0.0,0.0,100,0.00,,,0.00,Weather View 32 v70,2013-07-26 10:08:00,
2013-07-26 06:13:00,58.6,58.6,30.12,South,190,0.0,0.0,100,0.00,,,0.00,Weather View 32 v70,2013-07-26 10:13:00,
2013-07-26 06:18:00,58.5,58.5,30.12,South,190,0.0,0.0,100,0.00,,,0.00,Weather View 32 v70,2013-07-26 10:18:00,
2013-07-26 06:23:00,58.4,58.4,30.12,South,190,0.0,0.0,100,0.00,,,0.00,Weather View 32 v70,2013-07-26 10:23:00,
2013-07-26 06:29:00,58.4,58.4,30.12,South,169,0.0,0.0,100,0.00,,,0.00,Weather View 32 v70,2013-07-26 10:29:00,
2013-07-26 06:34:00,58.4,58.4,30.12,South,169,0.0,0.0,100,0.00,,,0.00,Weather View 32 v70,2013-07-26 10:34:00,
2013-07-26 06:39:00,58.3,58.3,30.12,South,169,0.0,0.0,100,0.00,,,0.00,Weather View 32 v70,2013-07-26 10:39:00,
2013-07-26 06:44:00,58.2,58.2,30.12,SSE,168,0.0,0.0,100,0.00,,,0.00,Weather View 32 v70,2013-07-26 10:44:00,
2013-07-26 06:49:00,58.2,58.2,30.12,South,169,0.0,0.0,100,0.00,,,0.00,Weather View 32 v70,2013-07-26 10:49:00,
2013-07-26 06:54:00,58.1,58.1,30.13,SSE,166,0.0,0.0,100,0.00,,,0.00,Weather View 32 v70,2013-07-26 10:54:00,
2013-07-26 06:59:00,58.1,58.1,30.12,South,175,0.0,0.0,100,0.00,,,0.00,Weather View 32 v70,2013-07-26 10:59:00,
2013-07-26 07:04:00,58.1,58.1,30.13,South,175,0.0,0.0,100,0.00,,,0.00,Weather View 32 v70,2013-07-26 11:04:00,
2013-07-26 07:09:00,58.1,58.1,30.12,SSE,165,0.0,0.0,100,0.00,,,0.00,Weather View 32 v70,2013-07-26 11:09:00,
2013-07-26 07:14:00,58.2,58.2,30.13,SSE,165,0.0,0.0,100,0.00,,,0.00,Weather View 32 v70,2013-07-26 11:14:00,
2013-07-26 07:19:00,58.2,58.2,30.13,SSE,165,0.0,0.0,100,0.00,,,0.00,Weather View 32 v70,2013-07-26 11:19:00,
2013-07-26 07:24:00,58.2,58.2,30.13,SSE,165,0.0,0.0,100,0.00,,,0.00,Weather View 32 v70,2013-07-26 11:24:00,
2013-07-26 07:29:00,58.3,58.3,30.14,SSE,165,0.0,0.0,100,0.00,,,0.00,Weather View 32 v70,2013-07-26 11:29:00,
2013-07-26 07:34:00,58.3,58.3,30.14,SSE,165,0.0,0.0,100,0.00,,,0.00,Weather View 32 v70,2013-07-26 11:34:00,
2013-07-26 07:39:00,58.4,58.4,30.14,SSE,165,0.0,0.0,100,0.00,,,0.00,Weather View 32 v70,2013-07-26 11:39:00,
2013-07-26 07:44:00,58.4,58.4,30.14,SSE,163,0.0,0.0,100,0.00,,,0.00,Weather View 32 v70,2013-07-26 11:44:00,
2013-07-26 07:49:00,58.5,58.5,30.14,SSE,164,0.0,0.0,100,0.00,,,0.00,Weather View 32 v70,2013-07-26 11:49:00,
2013-07-26 07:54:00,58.5,58.5,30.14,SSE,164,0.0,0.0,100,0.00,,,0.00,Weather View 32 v70,2013-07-26 11:54:00,
2013-07-26 07:59:00,58.7,58.7,30.14,SSE,164,0.0,0.0,100,0.00,,,0.00,Weather View 32 v70,2013-07-26 11:59:00,
2013-07-26 08:04:00,58.9,58.9,30.15,SSE,164,0.0,0.0,100,0.00,,,0.00,Weather View 32 v70,2013-07-26 12:04:00,
2013-07-26 08:09:00,58.9,58.9,30.15,NNE,25,0.0,0.0,100,0.00,,,0.00,Weather View 32 v70,2013-07-26 12:09:00,
2013-07-26 08:14:00,58.7,58.7,30.15,SE,142,0.0,2.0,100,0.00,,,0.00,Weather View 32 v70,2013-07-26 12:14:00,
2013-07-26 08:19:00,58.7,58.7,30.15,SSE,162,0.0,2.0,100,0.00,,,0.00,Weather View 32 v70,2013-07-26 12:19:00,
2013-07-26 08:24:00,58.9,58.9,30.16,South,178,0.0,2.0,100,0.00,,,0.00,Weather View 32 v70,2013-07-26 12:24:00,
2013-07-26 08:29:00,59.1,59.1,30.15,South,178,0.0,2.0,100,0.00,,,0.00,Weather View 32 v70,2013-07-26 12:29:00,
2013-07-26 08:34:00,59.4,59.4,30.15,South,178,0.0,2.0,100,0.00,,,0.00,Weather View 32 v70,2013-07-26 12:34:00,
2013-07-26 08:39:00,59.7,59.7,30.16,South,178,0.0,2.0,100,0.00,,,0.00,Weather View 32 v70,2013-07-26 12:39:00,
2013-07-26 08:44:00,60.0,60.0,30.15,SSE,163,0.0,2.0,100,0.00,,,0.00,Weather View 32 v70,2013-07-26 12:44:00,
2013-07-26 08:49:00,60.2,60.2,30.15,SSE,162,0.0,2.0,100,0.00,,,0.00,Weather View 32 v70,2013-07-26 12:49:00,
2013-07-26 08:50:00,60.3,60.3,30.15,SSE,162,0.0,2.0,100,0.00,,,0.00,Weather View 32 v70,2013-07-26 12:50:00,
2013-07-26 08:55:00,60.5,60.5,30.15,SSE,162,0.0,2.0,100,0.00,,,0.00,Weather View 32 v70,2013-07-26 12:55:00,
2013-07-26 09:00:00,60.8,60.8,30.16,SSE,162,0.0,2.0,100,0.00,,,0.00,Weather View 32 v70,2013-07-26 13:00:00,
2013-07-26 09:05:00,60.9,60.9,30.16,SSE,162,0.0,2.0,100,0.00,,,0.00,Weather View 32 v70,2013-07-26 13:05:00,
2013-07-26 09:10:00,61.1,61.1,30.16,SSE,162,0.0,2.0,100,0.00,,,0.00,Weather View 32 v70,2013-07-26 13:10:00,
2013-07-26 09:15:00,61.6,61.6,30.16,North,356,0.0,0.0,100,0.00,,,0.00,Weather View 32 v70,2013-07-26 13:15:00,
2013-07-26 09:20:00,62.0,62.0,30.16,NNE,16,0.0,0.0,100,0.00,,,0.00,Weather View 32 v70,2013-07-26 13:20:00,
2013-07-26 09:25:00,62.4,62.4,30.16,NNE,16,0.0,0.0,100,0.00,,,0.00,Weather View 32 v70,2013-07-26 13:25:00,
2013-07-26 09:30:00,62.5,62.5,30.16,ENE,74,0.0,0.0,100,0.00,,,0.00,Weather View 32 v70,2013-07-26 13:30:00,
2013-07-26 09:35:00,62.8,62.8,30.17,NNW,334,0.0,0.0,100,0.00,,,0.00,Weather View 32 v70,2013-07-26 13:35:00,
2013-07-26 09:40:00,63.1,63.1,30.17,North,353,0.0,0.0,100,0.00,,,0.00,Weather View 32 v70,2013-07-26 13:40:00,
2013-07-26 09:45:00,63.3,63.3,30.17,NE,52,0.0,1.0,100,0.00,,,0.00,Weather View 32 v70,2013-07-26 13:45:00,
2013-07-26 09:50:00,63.6,63.6,30.16,NE,52,0.0,1.0,100,0.00,,,0.00,Weather View 32 v70,2013-07-26 13:50:00,
2013-07-26 09:55:00,63.9,63.9,30.16,NE,52,0.0,1.0,100,0.00,,,0.00,Weather View 32 v70,2013-07-26 13:55:00,
2013-07-26 10:00:00,64.3,64.3,30.16,NE,53,0.0,1.0,100,0.00,,,0.00,Weather View 32 v70,2013-07-26 14:00:00,
2013-07-26 10:05:00,64.6,64.6,30.15,NE,53,0.0,1.0,100,0.00,,,0.00,Weather View 32 v70,2013-07-26 14:05:00,
2013-07-26 10:10:00,64.9,64.9,30.16,NE,53,0.0,1.0,100,0.00,,,0.00,Weather View 32 v70,2013-07-26 14:10:00,
2013-07-26 10:15:00,65.5,65.5,30.16,NW,304,0.0,5.0,100,0.00,,,0.00,Weather View 32 v70,2013-07-26 14:15:00,
2013-07-26 10:20:00,65.9,65.9,30.16,NW,304,0.0,5.0,100,0.00,,,0.00,Weather View 32 v70,2013-07-26 14:20:00,
2013-07-26 10:25:00,65.8,65.8,30.16,NW,324,0.0,5.0,100,0.00,,,0.00,Weather View 32 v70,2013-07-26 14:25:00,
2013-07-26 10:30:00,65.9,65.9,30.16,NW,324,0.0,5.0,100,0.00,,,0.00,Weather View 32 v70,2013-07-26 14:30:00,
2013-07-26 10:35:00,66.2,66.2,30.16,NW,324,0.0,5.0,100,0.00,,,0.00,Weather View 32 v70,2013-07-26 14:35:00,
2013-07-26 10:40:00,66.4,66.4,30.16,South,179,0.0,5.0,100,0.00,,,0.00,Weather View 32 v70,2013-07-26 14:40:00,
2013-07-26 10:47:00,66.7,66.7,30.16,South,190,0.0,5.0,100,0.00,,,0.00,Weather View 32 v70,2013-07-26 14:47:00,
2013-07-26 10:52:00,66.9,66.9,30.16,SSE,158,0.0,5.0,100,0.00,,,0.00,Weather View 32 v70,2013-07-26 14:52:00,
2013-07-26 10:57:00,67.3,67.3,30.16,SSE,158,0.0,5.0,100,0.00,,,0.00,Weather View 32 v70,2013-07-26 14:57:00,
2013-07-26 11:02:00,67.6,67.6,30.16,WNW,295,0.0,5.0,100,0.00,,,0.00,Weather View 32 v70,2013-07-26 15:02:00,
2013-07-26 11:07:00,68.0,68.0,30.16,WNW,288,0.0,5.0,100,0.00,,,0.00,Weather View 32 v70,2013-07-26 15:07:00,
2013-07-26 11:12:00,68.1,68.1,30.16,NNE,27,0.0,5.0,100,0.00,,,0.00,Weather View 32 v70,2013-07-26 15:12:00,
2013-07-26 11:17:00,68.8,68.8,30.16,NE,54,0.0,5.0,100,0.00,,,0.00,Weather View 32 v70,2013-07-26 15:17:00,
2013-07-26 11:22:00,69.2,69.2,30.16,NNE,18,0.0,5.0,100,0.00,,,0.00,Weather View 32 v70,2013-07-26 15:22:00,
2013-07-26 11:27:00,69.1,69.1,30.16,WSW,246,0.0,3.0,100,0.00,,,0.00,Weather View 32 v70,2013-07-26 15:27:00,
2013-07-26 11:32:00,70.0,70.0,30.16,NE,55,0.0,5.0,100,0.00,,,0.00,Weather View 32 v70,2013-07-26 15:32:00,
2013-07-26 11:37:00,70.1,69.5,30.16,SW,214,0.0,5.0,98,0.00,,,0.00,Weather View 32 v70,2013-07-26 15:37:00,
2013-07-26 11:42:00,70.7,70.1,30.16,SSW,208,2.0,5.0,98,0.00,,,0.00,Weather View 32 v70,2013-07-26 15:42:00,
2013-07-26 11:47:00,71.4,70.5,30.16,WSW,245,0.0,5.0,97,0.00,,,0.00,Weather View 32 v70,2013-07-26 15:47:00,
2013-07-26 11:52:00,71.6,70.1,30.16,WSW,246,0.0,5.0,95,0.00,,,0.00,Weather View 32 v70,2013-07-26 15:52:00,
2013-07-26 11:57:00,72.2,70.4,30.16,SW,228,0.0,5.0,94,0.00,,,0.00,Weather View 32 v70,2013-07-26 15:57:00,
2013-07-26 12:02:00,72.7,70.9,30.16,NNE,18,0.0,5.0,94,0.00,,,0.00,Weather View 32 v70,2013-07-26 16:02:00,
2013-07-26 12:07:00,72.8,70.6,30.16,NNE,25,3.0,5.0,93,0.00,,,0.00,Weather View 32 v70,2013-07-26 16:07:00,
2013-07-26 12:12:00,72.9,70.7,30.16,NNW,335,0.0,5.0,93,0.00,,,0.00,Weather View 32 v70,2013-07-26 16:12:00,
2013-07-26 12:17:00,73.2,71.0,30.16,North,349,0.0,5.0,93,0.00,,,0.00,Weather View 32 v70,2013-07-26 16:17:00,
2013-07-26 12:22:00,73.4,70.9,30.16,NNW,346,0.0,5.0,92,0.00,,,0.00,Weather View 32 v70,2013-07-26 16:22:00,
2013-07-26 12:27:00,73.9,71.4,30.15,South,169,0.0,5.0,92,0.00,,,0.00,Weather View 32 v70,2013-07-26 16:27:00,
2013-07-26 12:32:00,74.0,70.5,30.15,ENE,66,2.0,3.0,89,0.00,,,0.00,Weather View 32 v70,2013-07-26 16:32:00,
2013-07-26 12:37:00,74.3,71.5,30.15,NNE,28,0.0,3.0,91,0.00,,,0.00,Weather View 32 v70,2013-07-26 16:37:00,
2013-07-26 12:42:00,74.3,71.2,30.14,SSE,147,0.0,3.0,90,0.00,,,0.00,Weather View 32 v70,2013-07-26 16:42:00,
2013-07-26 12:47:00,75.0,70.8,30.14,SSE,163,0.0,5.0,87,0.00,,,0.00,Weather View 32 v70,2013-07-26 16:47:00,
2013-07-26 12:52:00,75.6,70.4,30.15,ENE,69,3.0,5.0,84,0.00,,,0.00,Weather View 32 v70,2013-07-26 16:52:00,
2013-07-26 12:57:00,75.8,69.5,30.14,East,99,0.0,5.0,81,0.00,,,0.00,Weather View 32 v70,2013-07-26 16:57:00,
2013-07-26 13:02:00,76.0,70.4,30.15,NNE,19,0.0,5.0,83,0.00,,,0.00,Weather View 32 v70,2013-07-26 17:02:00,
2013-07-26 13:07:00,75.5,68.9,30.14,NE,51,0.0,5.0,80,0.00,,,0.00,Weather View 32 v70,2013-07-26 17:07:00,
2013-07-26 13:12:00,75.9,70.7,30.14,ENE,78,0.0,5.0,84,0.00,,,0.00,Weather View 32 v70,2013-07-26 17:12:00,
2013-07-26 13:17:00,76.1,69.8,30.14,NE,53,0.0,5.0,81,0.00,,,0.00,Weather View 32 v70,2013-07-26 17:17:00,
2013-07-26 13:22:00,76.1,69.5,30.14,East,89,0.0,5.0,80,0.00,,,0.00,Weather View 32 v70,2013-07-26 17:22:00,
2013-07-26 13:27:00,75.5,70.3,30.14,NE,45,2.0,5.0,84,0.00,,,0.00,Weather View 32 v70,2013-07-26 17:27:00,
2013-07-26 13:32:00,75.0,69.1,30.14,East,99,2.0,7.0,82,0.00,,,0.00,Weather View 32 v70,2013-07-26 17:32:00,
2013-07-26 13:37:00,74.9,67.5,30.14,ESE,102,3.0,7.0,78,0.00,,,0.00,Weather View 32 v70,2013-07-26 17:37:00,
2013-07-26 13:42:00,75.0,67.3,30.13,ESE,116,1.0,7.0,77,0.00,,,0.00,Weather View 32 v70,2013-07-26 17:42:00,
2013-07-26 13:47:00,75.2,69.7,30.13,ESE,104,0.0,7.0,83,0.00,,,0.00,Weather View 32 v70,2013-07-26 17:47:00,
2013-07-26 13:52:00,75.0,69.8,30.13,NE,35,0.0,7.0,84,0.00,,,0.00,Weather View 32 v70,2013-07-26 17:52:00,
2013-07-26 13:57:00,74.8,70.0,30.13,NE,35,0.0,7.0,85,0.00,,,0.00,Weather View 32 v70,2013-07-26 17:57:00,
2013-07-26 14:02:00,74.6,69.4,30.13,NE,34,0.0,7.0,84,0.00,,,0.00,Weather View 32 v70,2013-07-26 18:02:00,
2013-07-26 14:07:00,74.5,69.3,30.13,NE,36,0.0,7.0,84,0.00,,,0.00,Weather View 32 v70,2013-07-26 18:07:00,
2013-07-26 14:12:00,74.4,69.6,30.13,NE,47,0.0,7.0,85,0.00,,,0.00,Weather View 32 v70,2013-07-26 18:12:00,
2013-07-26 14:17:00,74.3,69.8,30.13,ENE,68,0.0,7.0,86,0.00,,,0.00,Weather View 32 v70,2013-07-26 18:17:00,
2013-07-26 14:22:00,74.3,69.5,30.13,ENE,68,0.0,7.0,85,0.00,,,0.00,Weather View 32 v70,2013-07-26 18:22:00,
2013-07-26 14:28:00,74.5,70.0,30.13,ENE,67,0.0,7.0,86,0.00,,,0.00,Weather View 32 v70,2013-07-26 18:28:00,
2013-07-26 14:33:00,74.5,69.3,30.13,ENE,69,0.0,7.0,84,0.00,,,0.00,Weather View 32 v70,2013-07-26 18:33:00,
2013-07-26 14:34:00,74.5,69.0,30.13,ESE,116,0.0,5.0,83,0.00,,,0.00,Weather View 32 v70,2013-07-26 18:34:00,
2013-07-26 14:39:00,74.9,70.1,30.13,NNE,31,0.0,3.0,85,0.00,,,0.00,Weather View 32 v70,2013-07-26 18:39:00,
2013-07-26 14:44:00,75.4,70.2,30.13,NNE,33,0.0,2.0,84,0.00,,,0.00,Weather View 32 v70,2013-07-26 18:44:00,
2013-07-26 14:49:00,75.9,70.3,30.12,NE,43,0.0,2.0,83,0.00,,,0.00,Weather View 32 v70,2013-07-26 18:49:00,
2013-07-26 14:54:00,77.0,70.7,30.12,NW,319,0.0,2.0,81,0.00,,,0.00,Weather View 32 v70,2013-07-26 18:54:00,
2013-07-26 14:59:00,77.9,69.3,30.12,ESE,105,0.0,2.0,75,0.00,,,0.00,Weather View 32 v70,2013-07-26 18:59:00,
2013-07-26 15:04:00,78.2,68.4,30.12,ESE,112,0.0,3.0,72,0.00,,,0.00,Weather View 32 v70,2013-07-26 19:04:00,
2013-07-26 15:09:00,78.4,69.4,30.11,ESE,112,0.0,3.0,74,0.00,,,0.00,Weather View 32 v70,2013-07-26 19:09:00,
2013-07-26 15:14:00,78.3,69.7,30.11,ESE,112,0.0,3.0,75,0.00,,,0.00,Weather View 32 v70,2013-07-26 19:14:00,
2013-07-26 15:19:00,77.7,69.1,30.11,East,99,0.0,3.0,75,0.00,,,0.00,Weather View 32 v70,2013-07-26 19:19:00,
2013-07-26 15:24:00,77.1,69.3,30.12,East,99,0.0,3.0,77,0.00,,,0.00,Weather View 32 v70,2013-07-26 19:24:00,
2013-07-26 15:29:00,75.6,69.0,30.12,East,83,1.0,4.0,80,0.00,,,0.00,Weather View 32 v70,2013-07-26 19:29:00,
2013-07-26 15:34:00,74.3,69.5,30.13,ENE,77,0.0,4.0,85,0.01,,,0.01,Weather View 32 v70,2013-07-26 19:34:00,
2013-07-26 15:39:00,73.1,68.6,30.14,East,79,0.0,4.0,86,0.09,,,0.10,Weather View 32 v70,2013-07-26 19:39:00,
2013-07-26 15:44:00,71.5,68.1,30.14,NE,50,0.0,4.0,89,0.20,,,0.22,Weather View 32 v70,2013-07-26 19:44:00,
2013-07-26 15:49:00,70.3,67.5,30.14,SW,228,0.0,4.0,91,0.29,,,0.30,Weather View 32 v70,2013-07-26 19:49:00,
2013-07-26 15:54:00,69.5,67.4,30.13,SW,227,0.0,4.0,93,0.32,,,0.32,Weather View 32 v70,2013-07-26 19:54:00,
2013-07-26 15:59:00,68.6,66.8,30.13,NNW,348,3.0,4.0,94,0.33,,,0.34,Weather View 32 v70,2013-07-26 19:59:00,
2013-07-26 16:04:00,67.6,66.1,30.14,NNW,348,1.0,5.0,95,0.44,,,0.44,Weather View 32 v70,2013-07-26 20:04:00,
2013-07-26 16:09:00,66.9,66.0,30.14,SSW,202,0.0,5.0,97,0.61,,,0.61,Weather View 32 v70,2013-07-26 20:09:00,
2013-07-26 16:14:00,66.4,65.8,30.14,SSW,202,1.0,5.0,98,0.72,,,0.72,Weather View 32 v70,2013-07-26 20:14:00,
2013-07-26 16:19:00,66.1,66.1,30.13,SSW,196,2.0,5.0,100,0.78,,,0.78,Weather View 32 v70,2013-07-26 20:19:00,
2013-07-26 16:24:00,65.8,65.8,30.12,SSE,167,0.0,5.0,100,0.79,,,0.79,Weather View 32 v70,2013-07-26 20:24:00,
2013-07-26 16:29:00,65.6,65.6,30.12,SSW,198,0.0,5.0,100,0.79,,,0.79,Weather View 32 v70,2013-07-26 20:29:00,
2013-07-26 16:34:00,65.6,65.6,30.12,NNE,30,0.0,5.0,100,0.78,,,0.79,Weather View 32 v70,2013-07-26 20:34:00,
2013-07-26 16:39:00,65.6,65.6,30.11,NNE,31,0.0,5.0,100,0.70,,,0.79,Weather View 32 v70,2013-07-26 20:39:00,
2013-07-26 16:44:00,65.6,65.6,30.11,NNE,31,0.0,5.0,100,0.59,,,0.79,Weather View 32 v70,2013-07-26 20:44:00,
2013-07-26 16:49:00,65.6,65.6,30.11,NNE,31,0.0,5.0,100,0.50,,,0.79,Weather View 32 v70,2013-07-26 20:49:00,
2013-07-26 16:54:00,65.5,65.5,30.11,NE,35,0.0,5.0,100,0.48,,,0.80,Weather View 32 v70,2013-07-26 20:54:00,
2013-07-26 16:59:00,65.5,65.5,30.11,NE,35,0.0,5.0,100,0.47,,,0.80,Weather View 32 v70,2013-07-26 20:59:00,
2013-07-26 17:04:00,65.6,65.6,30.11,NE,36,0.0,5.0,100,0.36,,,0.80,Weather View 32 v70,2013-07-26 21:04:00,
2013-07-26 17:09:00,65.8,65.8,30.11,NE,36,0.0,5.0,100,0.19,,,0.80,Weather View 32 v70,2013-07-26 21:09:00,
2013-07-26 17:14:00,65.9,65.9,30.11,South,172,0.0,5.0,100,0.08,,,0.80,Weather View 32 v70,2013-07-26 21:14:00,
2013-07-26 17:19:00,65.8,65.8,30.11,SSE,157,0.0,5.0,100,0.02,,,0.80,Weather View 32 v70,2013-07-26 21:19:00,
2013-07-26 17:24:00,65.9,65.9,30.11,SSE,161,0.0,0.0,100,0.01,,,0.80,Weather View 32 v70,2013-07-26 21:24:00,
2013-07-26 17:29:00,66.1,66.1,30.11,SSE,161,0.0,0.0,100,0.01,,,0.80,Weather View 32 v70,2013-07-26 21:29:00,
2013-07-26 17:34:00,66.4,66.4,30.11,SSE,161,0.0,0.0,100,0.01,,,0.80,Weather View 32 v70,2013-07-26 21:34:00,
2013-07-26 17:39:00,66.6,66.6,30.11,SSE,160,0.0,0.0,100,0.01,,,0.80,Weather View 32 v70,2013-07-26 21:39:00,
2013-07-26 17:44:00,66.8,66.8,30.11,SSE,160,0.0,0.0,100,0.01,,,0.80,Weather View 32 v70,2013-07-26 21:44:00,
2013-07-26 17:49:00,67.0,67.0,30.10,SSE,160,0.0,0.0,100,0.01,,,0.80,Weather View 32 v70,2013-07-26 21:49:00,
2013-07-26 17:54:00,67.4,67.4,30.10,SSE,160,0.0,0.0,100,0.00,,,0.80,Weather View 32 v70,2013-07-26 21:54:00,
2013-07-26 17:59:00,67.9,67.9,30.10,SSE,160,0.0,0.0,100,0.00,,,0.80,Weather View 32 v70,2013-07-26 21:59:00,
2013-07-26 18:04:00,68.2,68.2,30.10,SSE,159,0.0,0.0,100,0.00,,,0.80,Weather View 32 v70,2013-07-26 22:04:00,
2013-07-26 18:09:00,68.5,68.5,30.09,NNE,18,0.0,0.0,100,0.00,,,0.80,Weather View 32 v70,2013-07-26 22:09:00,
2013-07-26 18:14:00,68.9,68.9,30.09,NNE,18,0.0,0.0,100,0.00,,,0.80,Weather View 32 v70,2013-07-26 22:14:00,
2013-07-26 18:19:00,69.4,69.4,30.09,North,10,0.0,0.0,100,0.00,,,0.80,Weather View 32 v70,2013-07-26 22:19:00,
2013-07-26 18:24:00,69.7,69.7,30.09,NNW,336,0.0,0.0,100,0.00,,,0.80,Weather View 32 v70,2013-07-26 22:24:00,
2013-07-26 18:29:00,69.8,69.8,30.09,ENE,66,0.0,7.0,100,0.00,,,0.80,Weather View 32 v70,2013-07-26 22:29:00,
2013-07-26 18:34:00,70.0,70.0,30.08,ESE,117,0.0,7.0,100,0.00,,,0.80,Weather View 32 v70,2013-07-26 22:34:00,
2013-07-26 18:39:00,70.2,70.2,30.08,ESE,118,0.0,7.0,100,0.00,,,0.80,Weather View 32 v70,2013-07-26 22:39:00,
2013-07-26 18:44:00,70.1,70.1,30.09,SE,130,0.0,7.0,100,0.00,,,0.80,Weather View 32 v70,2013-07-26 22:44:00,
2013-07-26 18:49:00,70.1,70.1,30.08,SE,130,0.0,7.0,100,0.00,,,0.80,Weather View 32 v70,2013-07-26 22:49:00,
2013-07-26 18:54:00,70.2,70.2,30.08,SE,130,0.0,7.0,100,0.00,,,0.80,Weather View 32 v70,2013-07-26 22:54:00,
2013-07-26 18:59:00,70.2,70.2,30.09,North,9,0.0,7.0,100,0.00,,,0.80,Weather View 32 v70,2013-07-26 22:59:00,
2013-07-26 19:04:00,70.2,70.2,30.09,East,93,0.0,7.0,100,0.00,,,0.80,Weather View 32 v70,2013-07-26 23:04:00,
2013-07-26 19:09:00,70.1,70.1,30.09,South,182,0.0,7.0,100,0.00,,,0.80,Weather View 32 v70,2013-07-26 23:09:00,
2013-07-26 19:14:00,70.1,70.1,30.09,South,175,0.0,7.0,100,0.00,,,0.80,Weather View 32 v70,2013-07-26 23:14:00,
2013-07-26 19:19:00,70.0,70.0,30.10,South,175,0.0,7.0,100,0.00,,,0.80,Weather View 32 v70,2013-07-26 23:19:00,
2013-07-26 19:24:00,69.9,69.9,30.09,South,178,0.0,7.0,100,0.00,,,0.80,Weather View 32 v70,2013-07-26 23:24:00,
2013-07-26 19:29:00,69.4,69.4,30.09,South,178,0.0,1.0,100,0.00,,,0.80,Weather View 32 v70,2013-07-26 23:29:00,
2013-07-26 19:34:00,69.3,69.3,30.09,South,178,0.0,1.0,100,0.00,,,0.80,Weather View 32 v70,2013-07-26 23:34:00,
2013-07-26 19:39:00,69.1,69.1,30.09,South,178,0.0,1.0,100,0.00,,,0.80,Weather View 32 v70,2013-07-26 23:39:00,
2013-07-26 19:44:00,68.9,68.9,30.09,South,178,0.0,1.0,100,0.00,,,0.80,Weather View 32 v70,2013-07-26 23:44:00,
2013-07-26 19:49:00,68.8,68.8,30.09,South,178,0.0,1.0,100,0.00,,,0.80,Weather View 32 v70,2013-07-26 23:49:00,
2013-07-26 19:54:00,68.5,68.5,30.09,South,178,0.0,1.0,100,0.00,,,0.80,Weather View 32 v70,2013-07-26 23:54:00,
2013-07-26 19:59:00,68.5,68.5,30.10,South,178,0.0,1.0,100,0.00,,,0.80,Weather View 32 v70,2013-07-26 23:59:00,
2013-07-26 20:04:00,68.3,68.3,30.09,South,181,0.0,0.0,100,0.00,,,0.80,Weather View 32 v70,2013-07-27 00:04:00,
2013-07-26 20:09:00,68.1,68.1,30.10,South,182,0.0,0.0,100,0.00,,,0.80,Weather View 32 v70,2013-07-27 00:09:00,
2013-07-26 20:14:00,67.9,67.9,30.09,South,183,0.0,0.0,100,0.00,,,0.80,Weather View 32 v70,2013-07-27 00:14:00,
2013-07-26 20:19:00,67.8,67.8,30.09,South,183,0.0,0.0,100,0.00,,,0.80,Weather View 32 v70,2013-07-27 00:19:00,
2013-07-26 20:24:00,67.7,67.7,30.10,South,183,0.0,0.0,100,0.00,,,0.80,Weather View 32 v70,2013-07-27 00:24:00,
2013-07-26 20:29:00,67.6,67.6,30.10,South,191,0.0,0.0,100,0.00,,,0.80,Weather View 32 v70,2013-07-27 00:29:00,
2013-07-26 20:34:00,67.5,67.5,30.10,South,189,0.0,0.0,100,0.00,,,0.80,Weather View 32 v70,2013-07-27 00:34:00,
2013-07-26 20:39:00,67.4,67.4,30.11,South,189,0.0,0.0,100,0.00,,,0.80,Weather View 32 v70,2013-07-27 00:39:00,
2013-07-26 20:44:00,67.3,67.3,30.11,South,190,0.0,0.0,100,0.00,,,0.80,Weather View 32 v70,2013-07-27 00:44:00,
2013-07-26 20:49:00,67.3,67.3,30.11,South,191,0.0,0.0,100,0.00,,,0.80,Weather View 32 v70,2013-07-27 00:49:00,
2013-07-26 20:54:00,67.2,67.2,30.11,South,191,0.0,0.0,100,0.00,,,0.80,Weather View 32 v70,2013-07-27 00:54:00,
2013-07-26 20:59:00,67.2,67.2,30.11,SSW,196,0.0,0.0,100,0.00,,,0.80,Weather View 32 v70,2013-07-27 00:59:00,
2013-07-26 21:04:00,67.2,67.2,30.11,SSW,196,0.0,0.0,100,0.00,,,0.80,Weather View 32 v70,2013-07-27 01:04:00,
2013-07-26 21:09:00,67.1,67.1,30.11,SSW,196,0.0,0.0,100,0.00,,,0.80,Weather View 32 v70,2013-07-27 01:09:00,
2013-07-26 21:14:00,67.0,67.0,30.11,SSW,196,0.0,0.0,100,0.00,,,0.80,Weather View 32 v70,2013-07-27 01:14:00,
2013-07-26 21:19:00,67.0,67.0,30.11,SSW,196,0.0,0.0,100,0.00,,,0.80,Weather View 32 v70,2013-07-27 01:19:00,
2013-07-26 21:24:00,67.0,67.0,30.11,SSW,196,0.0,0.0,100,0.00,,,0.80,Weather View 32 v70,2013-07-27 01:24:00,
2013-07-26 21:29:00,66.9,66.9,30.11,SSW,196,0.0,0.0,100,0.00,,,0.80,Weather View 32 v70,2013-07-27 01:29:00,
2013-07-26 21:34:00,66.8,66.8,30.11,SSW,196,0.0,0.0,100,0.00,,,0.80,Weather View 32 v70,2013-07-27 01:34:00,
2013-07-26 21:39:00,66.8,66.8,30.12,SSW,196,0.0,0.0,100,0.00,,,0.80,Weather View 32 v70,2013-07-27 01:39:00,
2013-07-26 21:44:00,66.8,66.8,30.12,SSW,196,0.0,0.0,100,0.01,,,0.81,Weather View 32 v70,2013-07-27 01:44:00,
2013-07-26 21:49:00,66.7,66.7,30.11,SSW,196,0.0,0.0,100,0.02,,,0.82,Weather View 32 v70,2013-07-27 01:49:00,
2013-07-26 21:54:00,66.7,66.7,30.11,SSW,196,0.0,0.0,100,0.02,,,0.82,Weather View 32 v70,2013-07-27 01:54:00,
2013-07-26 21:59:00,66.6,66.6,30.11,SSW,196,0.0,0.0,100,0.03,,,0.83,Weather View 32 v70,2013-07-27 01:59:00,
2013-07-26 22:04:00,66.6,66.6,30.12,SSW,196,0.0,0.0,100,0.03,,,0.83,Weather View 32 v70,2013-07-27 02:04:00,
2013-07-26 22:09:00,66.6,66.6,30.12,SSW,193,0.0,0.0,100,0.03,,,0.83,Weather View 32 v70,2013-07-27 02:09:00,
2013-07-26 22:14:00,66.4,66.4,30.12,SSW,193,0.0,0.0,100,0.03,,,0.83,Weather View 32 v70,2013-07-27 02:14:00,
2013-07-26 22:19:00,66.3,66.3,30.12,SSW,193,0.0,0.0,100,0.03,,,0.83,Weather View 32 v70,2013-07-27 02:19:00,
2013-07-26 22:24:00,66.3,66.3,30.12,SSW,193,0.0,0.0,100,0.03,,,0.83,Weather View 32 v70,2013-07-27 02:24:00,
2013-07-26 22:29:00,66.2,66.2,30.11,SSW,193,0.0,0.0,100,0.03,,,0.83,Weather View 32 v70,2013-07-27 02:29:00,
2013-07-26 22:35:00,66.2,66.2,30.12,SSW,193,0.0,0.0,100,0.03,,,0.83,Weather View 32 v70,2013-07-27 02:35:00,
2013-07-26 22:40:00,66.1,66.1,30.12,SSW,193,0.0,0.0,100,0.03,,,0.83,Weather View 32 v70,2013-07-27 02:40:00,
2013-07-26 22:45:00,66.1,66.1,30.12,SSW,193,0.0,0.0,100,0.02,,,0.83,Weather View 32 v70,2013-07-27 02:45:00,
2013-07-26 22:50:00,66.0,66.0,30.12,SSW,193,0.0,0.0,100,0.01,,,0.83,Weather View 32 v70,2013-07-27 02:50:00,
2013-07-26 22:55:00,66.0,66.0,30.12,SSW,193,0.0,0.0,100,0.01,,,0.83,Weather View 32 v70,2013-07-27 02:55:00,
2013-07-26 23:00:00,66.0,66.0,30.12,SSW,193,0.0,0.0,100,0.00,,,0.83,Weather View 32 v70,2013-07-27 03:00:00,
2013-07-26 23:05:00,66.1,66.1,30.12,South,169,0.0,0.0,100,0.00,,,0.83,Weather View 32 v70,2013-07-27 03:05:00,
2013-07-26 23:10:00,66.1,66.1,30.12,SSE,166,0.0,0.0,100,0.00,,,0.83,Weather View 32 v70,2013-07-27 03:10:00,
2013-07-26 23:15:00,66.1,66.1,30.12,SSE,166,0.0,0.0,100,0.00,,,0.83,Weather View 32 v70,2013-07-27 03:15:00,
2013-07-26 23:20:00,66.1,66.1,30.12,SSE,166,0.0,0.0,100,0.00,,,0.84,Weather View 32 v70,2013-07-27 03:20:00,
2013-07-26 23:25:00,66.0,66.0,30.12,SSE,166,0.0,0.0,100,0.01,,,0.84,Weather View 32 v70,2013-07-27 03:25:00,
2013-07-26 23:30:00,66.0,66.0,30.12,SSE,165,0.0,0.0,100,0.01,,,0.84,Weather View 32 v70,2013-07-27 03:30:00,
2013-07-26 23:35:00,66.0,66.0,30.12,SSE,166,0.0,0.0,100,0.01,,,0.84,Weather View 32 v70,2013-07-27 03:35:00,
2013-07-26 23:40:00,66.0,66.0,30.11,SSE,166,0.0,0.0,100,0.01,,,0.84,Weather View 32 v70,2013-07-27 03:40:00,
2013-07-26 23:45:00,65.9,65.9,30.11,SSE,166,0.0,0.0,100,0.01,,,0.84,Weather View 32 v70,2013-07-27 03:45:00,
2013-07-26 23:50:00,65.9,65.9,30.11,SSE,166,0.0,0.0,100,0.01,,,0.84,Weather View 32 v70,2013-07-27 03:50:00,
2013-07-26 23:55:00,65.8,65.8,30.11,South,170,0.0,0.0,100,0.01,,,0.84,Weather View 32 v70,2013-07-27 03:55:00,